#timestamp,LO_Frequency,Hit,StdDev 
1616940015.4,286046977.8,N
1616940035.3,286046980.3,N
1616940055.1,286046977.9,N
1616940075.8,286046978.4,N
1616940095.7,286046974.1,N
1616940115.5,286046975.9,N
1616940135.4,286046974.7,N
1616940155.2,286046973.7,N
1616940175.0,286046969.7,Y
1616940175.9,286046969.7,P
1616940195.8,286046981.2,N
1616940215.6,286046974.2,P
1616940235.4,286046972.2,Y
1616940255.3,286046992.2,P
1616940275.1,286046998.3,N
1616940295.9,286047001.6,N
1616940315.7,286047006.9,N
1616940335.5,286047008.2,N
1616940355.4,286047013.3,N
1616940375.2,286047009.7,N
1616940395.1,286047009.6,N
1616940396.0,286047009.6,N
1616940415.8,286047004.8,N
1616940435.6,286047001.6,N
1616940455.5,286047000.8,N
1616940475.3,286046999.3,N
1616940495.1,286046994.5,N
1616940515.9,286046995.7,N
1616940535.7,286046990.1,N
1616940555.6,286046994.1,N
1616940575.4,286046989.2,N
1616940595.2,286046988.2,N
1616940615.1,286046984.4,N
1616940616.0,286046984.4,N
1616940635.8,286046984.0,N
1616940655.7,286046986.6,N
1616940675.5,286046984.2,N
1616940695.3,286046980.1,N
1616940715.2,286046979.0,N
1616940735.0,286046977.6,N
1616940735.9,286046977.6,N
1616940755.7,286046974.3,N
1616940775.6,286046970.2,N
1616940795.4,286046971.1,N
1616940815.3,286046978.2,N
1616940835.1,286046979.2,N
1616940836.0,286046979.2,N
1616940855.8,286046986.5,N
1616940875.7,286046987.2,N
1616940895.5,286046991.1,N
1616940915.4,286046986.0,N
1616940935.2,286046984.2,N
1616940955.0,286046983.9,N
1616940955.9,286046983.9,N
1616940975.8,286046985.9,N
1616940995.6,286046989.8,N
1616941015.4,286046987.4,N
1616941035.3,286046984.6,N
1616941055.1,286046986.7,N
1616941075.9,286046992.0,N
1616941095.7,286046996.5,N
1616941115.5,286046995.8,N
1616941135.4,286046990.4,N
1616941155.2,286046993.1,N
1616941175.0,286046986.1,N
1616941176.0,286046986.1,N
1616941195.8,286046981.2,N
1616941215.6,286046979.2,Y
1616941235.5,286046997.4,P
1616941255.3,286046998.5,N
1616941275.1,286047000.7,N
1616941295.9,286046993.5,N
1616941315.7,286046993.1,N
1616941335.6,286046987.3,N
1616941355.4,286046988.3,N
1616941375.2,286046983.8,N
1616941395.1,286046988.7,N
1616941396.0,286046988.7,N
1616941415.8,286046993.6,N
1616941435.7,286046997.4,N
1616941455.5,286046991.7,N
1616941475.3,286046985.5,N
1616941495.2,286046985.6,N
1616941515.0,286046990.1,N
1616941515.9,286046990.1,N
1616941535.7,286046995.7,N
1616941555.6,286046997.9,N
1616941575.4,286046996.9,N
1616941595.3,286046996.6,N
1616941615.1,286046993.9,N
1616941635.8,286046993.3,N
1616941655.7,286046993.5,N
1616941675.5,286046994.1,N
1616941695.4,286046996.4,N
1616941715.2,286046997.8,N
1616941735.0,286046998.0,N
1616941735.9,286046998.0,N
1616941755.8,286046996.9,N
1616941775.6,286046997.4,N
1616941795.4,286046993.6,N
1616941815.3,286046994.2,N
1616941835.1,286046996.7,N
1616941855.9,286046993.3,N
1616941875.7,286046992.2,N
1616941895.5,286046992.1,N
1616941915.4,286046993.8,N
1616941935.2,286046995.4,N
1616941955.0,286046998.2,N
1616941955.9,286046998.2,N
1616941975.8,286046999.4,N
1616941995.6,286046999.1,N
1616942015.5,286046996.1,N
1616942035.3,286046993.3,N
1616942055.1,286047000.4,N
1616942075.9,286046997.1,N
1616942095.7,286046997.5,N
1616942115.5,286047000.7,N
1616942135.4,286047001.0,N
1616942155.2,286047002.2,N
1616942175.1,286047000.8,N
1616942176.0,286047000.8,N
1616942195.8,286046999.3,N
1616942215.7,286046997.9,N
1616942235.5,286046991.7,Y
1616942255.3,286046992.9,P
1616942275.2,286046991.4,P
1616942295.0,286046992.5,P
1616942295.9,286046992.5,Y
1616942315.8,286046999.7,P
1616942335.6,286047003.3,N
1616942355.4,286047000.0,N
1616942375.3,286047004.2,N
1616942425.1,286047001.4,E
1616942435.1,286047003.6,N
1616942436.0,286047003.6,P
1616942455.8,286047003.0,P
1616942475.6,286047000.5,N
1616942495.5,286046996.5,N
1616942515.3,286046999.1,N
1616942535.1,286046998.5,N
1616942555.9,286046998.6,N
1616942575.7,286046999.6,N
1616942595.6,286046994.2,N
1616942615.4,286046990.5,Y
1616942635.2,286046990.2,P
1616942655.1,286046992.6,N
1616942656.0,286046992.6,N
1616942675.8,286046992.8,N
1616942695.6,286046993.8,N
1616942715.5,286046991.3,N
1616942735.3,286046986.2,Y
1616942755.2,286046991.5,P
1616942775.9,286046988.6,P
1616942795.7,286046990.3,P
1616942815.6,286046991.1,Y
1616942835.4,286047002.0,P
1616942855.2,286047007.1,N
1616942875.1,286047008.2,N
1616942876.0,286047008.2,N
1616942895.8,286047007.7,N
1616942915.7,286047008.5,N
1616942935.5,286047001.6,N
1616942955.3,286046999.3,N
1616942975.2,286046991.7,N
1616942995.0,286046990.9,N
1616942995.9,286046990.9,N
1616943015.8,286046994.1,N
1616943035.6,286046993.7,N
1616943055.4,286046995.4,N
1616943075.3,286046999.1,N
1616943095.1,286046997.5,N
1616943115.8,286046991.2,N
1616943135.7,286046984.1,N
1616943155.5,286046982.6,N
1616943175.4,286046983.8,N
1616943195.2,286046988.0,N
1616943215.0,286046991.0,N
1616943215.9,286046991.0,N
1616943235.8,286046990.1,N
1616943255.6,286046993.6,N
1616943275.4,286046993.3,N
1616943295.3,286046993.1,N
1616943315.1,286046987.4,N
1616943335.9,286046982.4,N
1616943355.7,286046984.1,N
1616943375.5,286046989.6,N
1616943395.4,286046988.8,N
1616943415.2,286046989.7,N
1616943435.1,286046992.1,N
1616943436.0,286046992.1,N
1616943455.8,286046996.7,N
1616943505.7,286046983.8,E
1616943515.6,286046988.7,N
1616943535.4,286046992.7,P
1616943555.2,286046990.4,P
1616943575.1,286046994.8,Y
1616943576.0,286046994.8,P
1616943595.8,286046998.2,N
